Weather History for Hanford, WA

Change the Weather History Date:

Monday, February 4, 2013

  Actual Average Record
Temperature  
Mean Temperature 34 °F -  
Max Temperature 38 °F 43 °F 58 °F (2005)
Min Temperature 30 °F 27 °F 20 °F (2012)
Degree Days  
Heating Degree Days 31    
Moisture  
Dew Point 33 °F    
Average Humidity 95    
Maximum Humidity 100    
Minimum Humidity 75    
Precipitation  
Precipitation 0.00 in - - ()
Sea Level Pressure  
Sea Level Pressure 30.11 in    
Wind  
Wind Speed 4 mph (West)    
Max Wind Speed 10 mph    
Max Gust Speed -    
Visibility 5 miles    
Events Fog    
Averages and records for this station are not official NWS values.
T = Trace of Precipitation, MM = Missing Value Source: NWS Daily Summary

Daily Weather History Graph

Daily Weather History Graph

Search for Another Location

Airport:

Trip Planner

Search our weather history database for the weather conditions in past years. The results will help you decide how hot, cold, wet, or windy it might be!

Date:

Astronomy

Feb. 04, 2013 Rise Set
Actual Time 7:17 AM PST 5:07 PM PST
Civil Twilight 6:45 AM PST 5:39 PM PST
Nautical Twilight 6:09 AM PST 6:15 PM PST
Astronomical Twilight 5:34 AM PST 6:50 PM PST
Moon 2:03 AM PST (2/4) 11:29 AM PST (2/4)
Length of Visible Light 10h 53m
Length of Day
9h 49m
Last Quarter, 36% of the Moon is Illuminated
Feb 4
Last Quarter
Feb 9
New
Feb 17
First Quarter
Feb 25
Full
Mar 4
Last Quarter

Hourly Weather History & Observations

Time (PST) Temp. Windchill Dew Point Humidity Pressure Visibility Wind Dir Wind Speed Gust Speed Precip Events Conditions
12:50 AM 32.9 °F - 32.5 °F 99% 30.17 in 4.0 mi SW 2.3 mph - N/A   Overcast
2:50 AM 32.0 °F - 32.0 °F 100% 30.13 in 0.2 mi WSW 2.3 mph - N/A Fog Fog
3:50 AM 31.6 °F 28.3 °F 31.6 °F 100% 30.17 in 0.1 mi SSE 3.5 mph - N/A Fog Light Freezing Fog
4:50 AM 30.9 °F 27.5 °F 30.9 °F 100% 30.16 in 0.1 mi ESE 3.5 mph - N/A Fog Light Freezing Fog
5:50 AM 31.3 °F - 31.3 °F 100% 30.16 in 0.1 mi SE 2.3 mph - N/A Fog Light Freezing Fog
6:50 AM 31.3 °F 27.9 °F 31.3 °F 100% 30.14 in 0.1 mi ESE 3.5 mph - N/A Fog Light Freezing Fog
7:50 AM 31.6 °F - 31.6 °F 100% 30.14 in 0.1 mi South 2.3 mph - N/A Fog Light Freezing Fog
8:50 AM 32.0 °F 28.7 °F 32.0 °F 100% 30.15 in 0.2 mi East 3.5 mph - N/A Fog Light Freezing Fog
9:50 AM 33.1 °F - 32.9 °F 99% 30.17 in 0.2 mi Calm Calm - N/A Fog Fog
10:50 AM 33.8 °F 30.8 °F 33.8 °F 100% 30.17 in 0.1 mi South 3.5 mph - N/A Fog Fog
11:50 AM 34.5 °F 30.4 °F 34.5 °F 100% 30.16 in 0.2 mi NNW 4.6 mph - N/A Fog Fog
12:50 PM 35.4 °F - 33.4 °F 92% 30.14 in 1.0 mi South 2.3 mph - N/A   Overcast
1:50 PM 35.8 °F 31.9 °F 34.0 °F 93% 30.12 in 2.0 mi NNW 4.6 mph - N/A   Overcast
2:50 PM 38.8 °F 35.4 °F 34.0 °F 83% 30.10 in 10.0 mi NNW 4.6 mph - N/A   Overcast
3:50 PM 38.8 °F 35.4 °F 31.5 °F 75% 30.07 in 12.0 mi WNW 4.6 mph - N/A   Overcast
4:50 PM 36.7 °F 32.9 °F 33.3 °F 87% 30.06 in 15.0 mi NW 4.6 mph - N/A   Mostly Cloudy
5:50 PM 34.2 °F 27.5 °F 32.5 °F 94% 30.05 in 12.0 mi NW 8.1 mph - N/A   Mostly Cloudy
6:50 PM 34.9 °F 27.1 °F 32.5 °F 91% 30.05 in 12.0 mi NW 10.4 mph - N/A   Overcast
10:50 PM 33.6 °F 27.5 °F 32.4 °F 95% 29.99 in 15.0 mi WNW 6.9 mph - N/A   Overcast
11:50 PM 33.6 °F 27.5 °F 32.7 °F 96% 29.97 in 12.0 mi NW 6.9 mph - N/A   Overcast